Back to catalog

STARLINK-31034

AliveCommunicationsVLEO
NORAD 58785·PAYLOAD·🇺🇸 United States

Launched Jan 14, 2024 from Vandenberg Space Force Base

Loading…

Next Passes (next 24 hours)

TLE

FreshSource: CelesTrak SupGP

Epoch: Sep 14, 2026, 21:32 UTC

1 58785C 24011W   26257.89770833 -.00029278  00000+0 -86519-3 0  2576
2 58785  53.1573 108.2468 0001221  83.5592 102.2553 15.34399723    11

Track STARLINK-31034 in real time with AllMySat

Download on the App Store